Weather History for Albany, GA

Change the Weather History Date:

Tuesday, September 17, 2013

  Actual Average Record
Temperature  
Mean Temperature 82 °F 78 °F  
Max Temperature 91 °F 88 °F 100 °F (1972)
Min Temperature 72 °F 67 °F 52 °F (1961)
Degree Days  
Heating Degree Days 0 0  
Month to date heating degree days 0 0  
Since 1 July heating degree days 0 0  
Cooling Degree Days 17 13  
Month to date cooling degree days 284 246  
Year to date cooling degree days 2105 2219  
Growing Degree Days 30 (Base 50)    
Moisture  
Dew Point 71 °F    
Average Humidity 76    
Maximum Humidity 100    
Minimum Humidity 52    
Precipitation  
Precipitation T in 0.09 in 0.32 in (2012)
Month to date precipitation 0.21 2.29  
Year to date precipitation 41.57 37.89  
Sea Level Pressure  
Sea Level Pressure 30.10 in    
Wind  
Wind Speed 9 mph (ENE)    
Max Wind Speed 18 mph    
Max Gust Speed 31 mph    
Visibility 10 miles    
Events      
T = Trace of Precipitation, MM = Missing Value Source: NWS Daily Summary

Daily Weather History Graph

Daily Weather History Graph

Search for Another Location

Airport:

Trip Planner

Search our weather history database for the weather conditions in past years. The results will help you decide how hot, cold, wet, or windy it might be!

Date:

Astronomy

Sep. 17, 2013 Rise Set
Actual Time 7:22 AM EDT 7:39 PM EDT
Civil Twilight 6:57 AM EDT 8:03 PM EDT
Nautical Twilight 6:29 AM EDT 8:32 PM EDT
Astronomical Twilight 6:00 AM EDT 9:01 PM EDT
Moon 6:23 PM EDT (9/17) 5:21 AM EDT (9/17)
Length of Visible Light 13h 06m
Length of Day
12h 17m
Waxing Gibbous, 96% of the Moon is Illuminated
Sep 17
Waxing Gibbous
Sep 19
Full
Sep 26
Last Quarter
Oct 4
New
Oct 11
First Quarter

Hourly Weather History & Observations

Time (EDT) Temp. Heat Index Dew Point Humidity Pressure Visibility Wind Dir Wind Speed Gust Speed Precip Events Conditions
12:53 AM 75.9 °F - 69.1 °F 79% 30.09 in 10.0 mi ESE 13.8 mph - N/A   Partly Cloudy
1:53 AM 75.0 °F - 71.1 °F 87% 30.06 in 10.0 mi South 4.6 mph - 0.00 in   Clear
2:53 AM 73.9 °F - 71.1 °F 91% 30.06 in 10.0 mi NE 4.6 mph - N/A   Clear
3:53 AM 73.0 °F - 71.1 °F 93% 30.06 in 10.0 mi Calm Calm - N/A   Partly Cloudy
4:53 AM 73.0 °F - 71.1 °F 93% 30.06 in 10.0 mi North 4.6 mph - N/A   Clear
5:53 AM 72.0 °F - 70.0 °F 93% 30.07 in 10.0 mi Calm Calm - N/A   Clear
6:53 AM 72.0 °F - 70.0 °F 93% 30.08 in 10.0 mi Calm Calm - N/A   Clear
7:53 AM 72.0 °F - 71.1 °F 97% 30.11 in 10.0 mi Calm Calm - N/A   Clear
8:53 AM 73.9 °F - 72.0 °F 93% 30.12 in 10.0 mi ENE 8.1 mph - N/A   Clear
9:53 AM 79.0 °F - 73.0 °F 82% 30.13 in 10.0 mi ENE 5.8 mph - N/A   Clear
10:53 AM 82.0 °F 87.4 °F 73.0 °F 74% 30.14 in 10.0 mi East 6.9 mph - N/A   Mostly Cloudy
11:53 AM 82.9 °F 88.8 °F 73.0 °F 72% 30.15 in 10.0 mi ENE 10.4 mph - N/A   Mostly Cloudy
12:00 PM 84.2 °F 90.9 °F 73.4 °F 70% 30.16 in 10.0 mi ENE 10.4 mph - N/A   Mostly Cloudy
12:53 PM 84.9 °F 90.7 °F 72.0 °F 65% 30.14 in 10.0 mi East 16.1 mph - N/A   Mostly Cloudy
1:53 PM 88.0 °F 93.8 °F 71.1 °F 57% 30.12 in 10.0 mi East 12.7 mph - N/A   Scattered Clouds
2:53 PM 89.1 °F 94.1 °F 70.0 °F 53% 30.09 in 10.0 mi East 8.1 mph 18.4 mph N/A   Scattered Clouds
3:27 PM 86.0 °F 91.8 °F 71.6 °F 62% 30.08 in 10.0 mi ENE 9.2 mph - N/A   Mostly Cloudy
3:53 PM 89.1 °F 95.0 °F 71.1 °F 55% 30.07 in 10.0 mi ENE 13.8 mph 19.6 mph N/A   Mostly Cloudy
4:53 PM 86.0 °F 91.5 °F 71.1 °F 61% 30.06 in 10.0 mi East 16.1 mph - N/A   Mostly Cloudy
5:53 PM 86.0 °F 91.5 °F 71.1 °F 61% 30.06 in 10.0 mi East 16.1 mph - 0.00 in   Scattered Clouds
6:53 PM 82.9 °F 87.5 °F 71.1 °F 67% 30.08 in 10.0 mi ENE 13.8 mph - N/A   Scattered Clouds
7:53 PM 79.0 °F - 70.0 °F 74% 30.09 in 10.0 mi East 11.5 mph - N/A   Partly Cloudy
8:53 PM 78.1 °F - 69.1 °F 74% 30.12 in 10.0 mi ENE 13.8 mph 19.6 mph N/A   Clear
9:53 PM 77.0 °F - 69.1 °F 76% 30.13 in 10.0 mi East 13.8 mph - N/A   Mostly Cloudy
10:53 PM 75.0 °F - 69.1 °F 82% 30.13 in 9.0 mi ENE 11.5 mph - N/A   Clear
11:53 PM 73.9 °F - 69.1 °F 85% 30.14 in 9.0 mi ENE 10.4 mph - N/A   Clear